Theta_e
306 312 311 310 310 310 306 307 301 311 312 318 322 323 325 324 323 322 321 322 323 323 325 327 329 333 335 340 343 343 345 344 344 349 350 348 345 347 347 347 349 348 347 349
302 308 310 309 312 311 311 310 315 317 315 322 323 323 321 323 322 320 320 322 322 322 323 325 326 327 330 334 336 341 341 345 350 350 347 347 348 344 348 346 349 347 346 347
298 306 305 299 309 310 311 314 315 310 314 319 317 318 316 316 323 321 322 322 319 319 321 324 324 327 326 328 331 332 338 342 343 345 347 346 349 348 346 347 347 348 347 346
298 300 292 303 312 313 312 313 317 316 316 316 315 315 316 317 317 317 318 319 319 320 321 323 324 324 326 327 327 330 333 335 341 343 344 345 347 344 346 347 346 348 347 348
296 296 300 308 310 310 309 308 315 313 315 315 315 315 313 317 317 316 316 318 320 322 323 325 327 329 328 328 327 327 328 331 336 341 343 344 343 344 344 346 346 347 350 348
298 296 296 305 312 315 314 303 314 314 313 312 313 304 309 315 318 318 319 319 320 323 325 324 324 327 327 327 327 327 328 330 335 339 341 340 338 338 342 344 345 347 348 349
299 297 304 311 313 315 300 303 314 315 313 312 309 311 314 318 317 319 320 322 324 323 322 323 327 326 325 327 328 329 330 331 332 333 335 339 335 336 339 336 337 340 345 347
302 299 297 315 313 306 309 313 314 314 314 312 313 314 315 317 319 320 320 322 324 322 322 324 326 327 325 325 328 331 329 330 332 333 334 338 337 331 329 325 327 330 328 328
305 305 313 313 312 314 315 313 313 312 313 313 314 315 316 316 317 318 320 320 322 321 321 322 325 326 325 326 329 330 329 329 329 331 331 332 333 334 329 324 319 317 320 322
305 309 311 314 316 316 316 313 314 315 316 317 314 315 315 315 317 318 319 320 321 322 322 323 325 327 327 328 328 328 327 327 328 328 329 328 333 335 334 332 328 325 321 321
308 311 313 315 316 316 317 318 318 317 317 316 315 314 315 315 317 318 320 322 322 322 323 324 325 326 328 328 329 327 327 328 327 328 328 327 328 330 334 334 330 329 327 323
305 313 312 312 317 318 317 316 316 315 316 318 317 316 318 318 319 319 319 321 322 322 322 324 324 325 327 329 328 328 327 327 327 327 327 326 327 327 318 322 316 312 312 323
312 315 314 317 318 318 316 316 318 317 317 314 317 317 317 316 317 318 319 321 320 321 322 323 324 325 328 329 329 328 326 327 327 325 327 325 325 326 323 322 309 306 306 308
317 315 313 317 313 317 318 318 318 318 316 317 317 317 319 316 317 317 318 320 321 321 322 323 323 324 326 328 328 327 327 320 326 328 328 327 326 326 325 327 324 323 308 309
316 316 314 316 317 316 318 317 316 314 313 314 316 316 317 316 316 317 319 320 320 320 321 320 318 319 323 324 324 327 326 328 328 329 329 326 327 326 325 324 324 327 326 307
315 317 317 315 316 315 316 316 314 312 313 313 313 315 317 319 319 319 321 321 316 316 317 316 316 317 319 321 322 326 327 325 325 328 328 327 326 325 324 323 320 325 327 326
314 314 315 315 315 315 315 316 314 312 313 313 314 316 318 316 317 318 317 317 317 313 315 313 313 317 319 322 324 325 326 328 327 325 326 326 325 324 325 325 324 320 326 329
318 317 317 317 316 316 316 318 317 314 314 315 317 317 316 315 315 314 313 313 313 312 312 314 314 317 318 320 324 326 326 327 326 322 324 323 319 319 320 323 323 325 326 325
320 319 320 319 318 318 318 318 317 318 316 316 314 315 316 316 313 311 312 312 310 309 311 314 316 315 316 317 320 326 325 325 326 326 326 322 324 322 324 325 325 327 327 323
318 321 320 320 321 319 318 320 319 318 318 316 315 317 315 315 314 310 309 308 310 310 313 313 313 313 315 315 317 316 317 317 318 318 319 325 326 326 326 319 324 327 328 328
319 319 321 321 320 321 320 321 319 318 318 316 314 317 313 315 314 311 308 307 311 314 313 313 312 313 314 315 314 313 312 313 313 313 314 316 317 318 324 327 326 327 327 326
318 318 320 320 320 318 320 320 320 321 317 315 316 318 315 315 315 313 310 308 310 311 311 310 310 313 314 314 313 312 312 311 310 310 311 311 310 312 313 315 320 326 328 328
318 319 320 319 319 319 321 320 320 319 317 314 315 317 317 316 314 309 305 309 311 311 311 310 311 313 313 313 313 312 312 311 310 309 308 309 309 308 308 308 310 311 312 314
319 318 318 320 320 320 317 318 321 320 319 316 315 318 319 317 314 313 311 310 309 310 313 310 311 312 313 311 313 313 312 311 311 310 309 305 308 308 307 306 306 306 307 307
319 319 319 318 317 316 317 317 318 317 317 313 315 317 319 319 315 315 317 314 310 310 313 312 312 312 312 311 310 311 310 312 311 310 310 310 309 308 307 306 305 304 305 305
318 317 318 317 316 316 316 315 313 314 310 309 313 313 311 310 313 316 317 314 316 313 313 313 312 312 314 311 309 309 309 308 308 308 309 311 311 311 309 307 306 304 303 302
318 310 316 315 317 316 313 312 310 310 309 310 309 309 308 307 307 308 308 313 315 315 313 312 310 311 312 308 306 305 305 307 302 304 305 305 307 308 310 309 308 306 304 302
Wind_Speed
4 10 8 5 13 7 11 14 4 7 11 11 7 8 7 11 9 7 7 7 6 5 5 5 7 7 7 5 4 4 6 4 4 5 7 7 8 10 13 10 10 8 8 9
3 3 12 9 12 4 3 19 12 19 15 12 11 6 7 9 11 8 7 6 5 4 5 2 2 4 5 6 7 5 4 5 5 2 4 7 7 7 10 13 10 10 10 10
3 8 9 3 4 4 2 12 17 16 10 11 9 9 7 7 8 7 6 5 3 3 5 3 2 3 3 4 5 7 7 7 6 6 4 6 7 7 8 9 11 12 13 11
2 4 2 2 7 9 20 15 14 14 11 11 9 9 12 10 8 7 5 4 4 4 4 3 3 4 4 4 4 5 7 7 7 7 6 6 6 9 8 7 10 11 13 14
5 3 3 7 6 6 10 11 13 12 13 11 8 11 8 8 7 5 5 4 2 3 3 4 4 6 5 5 6 5 6 7 7 7 6 6 6 7 9 8 10 11 11 14
1 1 3 4 7 8 2 5 9 11 10 9 8 4 2 4 4 5 6 4 5 7 5 5 8 7 6 6 6 7 7 7 7 7 7 6 6 6 5 8 11 10 12 12
3 3 4 5 6 6 4 4 8 9 9 9 6 2 4 8 7 5 5 7 6 5 4 5 3 3 4 5 6 8 7 7 7 7 7 7 6 5 4 4 4 6 8 10
2 1 3 9 7 6 4 8 9 9 8 6 6 6 6 7 8 8 8 8 7 6 6 8 8 5 6 7 7 7 6 7 9 8 6 5 7 6 5 4 3 1 2 4
4 5 4 7 9 7 9 8 7 5 4 3 5 6 6 6 7 7 7 7 7 7 8 7 7 7 9 8 7 7 7 8 8 9 8 7 6 7 6 7 7 5 4 7
8 4 7 10 9 9 8 6 3 6 8 7 7 8 8 7 7 7 7 7 6 8 11 11 9 12 12 8 8 8 8 8 8 10 12 6 6 6 8 8 7 6 6 7
10 8 10 8 7 7 7 7 9 7 7 6 7 7 7 6 7 7 7 8 9 10 10 11 12 14 14 13 9 8 9 8 8 9 11 9 8 9 9 11 11 9 9 9
4 5 8 5 6 8 8 4 4 5 7 8 8 8 8 7 7 6 9 9 9 11 12 13 14 14 14 11 9 11 10 8 7 8 9 8 8 8 14 18 19 19 13 12
6 7 6 10 8 6 3 2 6 9 6 5 7 6 6 7 7 10 9 9 11 13 14 13 14 13 14 13 10 10 9 8 6 8 9 9 8 8 6 5 7 8 15 18
8 4 6 5 4 5 9 7 6 5 7 6 6 5 3 5 8 9 10 12 13 14 12 13 14 14 10 11 12 10 9 12 8 8 9 9 9 8 6 5 5 5 11 14
7 5 5 7 9 7 6 4 5 6 6 4 4 3 3 6 7 9 9 8 12 13 11 11 15 16 14 14 14 13 8 7 8 8 8 10 8 7 7 9 5 4 2 2
5 5 7 8 5 5 5 6 6 6 5 4 5 6 7 7 8 9 10 10 11 13 14 14 15 17 16 15 13 10 10 13 12 9 8 8 8 7 5 7 6 5 5 6
5 5 3 5 4 5 4 3 5 4 3 4 5 5 7 8 8 9 11 13 12 13 13 14 16 17 17 15 11 9 7 8 12 6 5 7 7 7 6 7 7 5 6 7
3 5 5 5 3 2 3 4 3 3 4 4 3 4 5 6 8 10 12 13 12 13 13 15 17 18 16 15 13 9 8 9 7 5 6 5 5 5 6 7 6 3 4 5
3 3 3 5 4 3 2 1 5 4 5 4 5 4 5 6 4 5 9 11 12 13 16 16 26 20 16 18 17 9 9 10 9 7 6 9 8 6 6 6 5 5 5 5
4 1 5 4 6 4 4 4 5 3 3 4 4 5 4 3 3 3 5 6 7 7 13 15 15 14 14 17 20 9 10 9 9 8 9 7 5 9 8 9 7 6 5 4
2 2 1 3 2 3 2 4 3 2 3 3 3 3 3 2 2 3 5 4 8 9 10 15 12 11 10 15 13 10 11 11 10 10 11 10 10 12 13 6 4 4 3 3
6 6 5 3 3 2 1 3 3 1 3 1 3 3 3 2 1 4 2 2 4 9 5 5 6 14 12 19 10 11 12 12 10 10 10 11 11 12 11 12 13 9 7 5
2 2 3 4 3 4 4 4 5 2 2 3 5 4 1 4 4 2 2 4 4 4 3 3 7 10 12 8 9 10 12 13 13 13 12 11 11 12 11 11 9 11 11 10
4 4 1 1 4 3 6 5 4 2 4 7 5 4 3 5 4 4 4 6 8 7 5 4 5 7 8 5 6 7 8 8 9 10 11 12 11 10 10 10 11 10 11 12
4 4 2 4 3 2 4 4 4 4 5 3 3 1 5 3 4 3 3 5 8 5 3 5 9 6 3 5 5 7 8 6 4 5 7 8 9 10 10 10 10 10 10 10
2 1 3 3 2 1 1 3 3 3 3 4 3 4 5 5 4 5 4 6 4 3 4 5 6 4 2 2 5 6 5 8 9 8 6 5 6 7 8 8 9 9 9 9
4 3 1 2 1 2 3 2 2 2 0 2 3 4 5 5 5 6 7 4 1 4 3 4 5 5 3 3 4 5 5 5 6 6 7 9 9 8 7 7 7 7 7 8
Wind_Direction
119 168 177 222 297 320 346 303 39 141 124 138 128 102 127 118 111 99 84 68 57 26 9 35 21 4 4 9 27 357 347 6 304 302 234 214 209 197 203 208 207 196 200 200
358 257 192 197 235 239 277 295 116 104 113 149 172 170 101 139 138 125 118 102 64 22 343 341 37 344 355 11 354 355 352 331 324 333 322 247 213 216 200 207 209 200 203 213
309 342 339 308 212 228 40 53 117 111 124 103 83 78 57 351 124 133 110 100 65 327 295 317 332 25 356 345 344 339 321 312 308 308 309 270 261 231 223 200 208 207 213 207
232 333 291 185 27 53 70 46 111 109 105 106 101 77 73 61 70 52 44 24 340 344 355 342 340 322 299 308 304 300 305 305 293 280 277 282 265 252 237 221 211 209 213 213
153 207 210 52 14 25 107 37 36 79 84 79 76 100 54 41 38 26 5 345 327 301 264 270 268 264 255 255 258 281 286 286 289 289 267 276 275 263 254 239 238 226 210 212
50 290 313 117 44 358 143 58 38 56 54 52 50 43 201 46 20 338 322 298 290 288 296 301 280 261 251 256 248 252 258 261 270 294 277 253 266 275 283 280 257 231 229 213
213 210 80 43 29 313 64 178 59 59 48 41 55 156 293 346 332 306 315 341 359 358 327 306 318 328 309 283 268 258 263 268 265 262 268 243 243 258 252 271 275 277 268 262
314 42 123 332 29 77 162 60 63 44 36 26 3 332 306 314 9 1 342 334 338 338 336 328 314 321 297 282 267 252 265 271 271 257 248 255 229 243 221 202 235 240 58 312
98 157 149 66 104 69 75 81 57 52 357 321 346 11 357 343 347 328 334 341 343 333 314 304 296 289 286 274 271 268 262 255 259 267 254 232 247 223 224 227 217 224 184 233
95 145 99 81 70 70 68 74 37 31 51 31 12 9 1 2 348 352 334 314 320 322 317 307 311 305 290 278 272 266 269 257 256 264 267 235 234 231 233 245 235 206 204 200
95 86 81 74 81 80 54 44 43 31 26 12 16 350 337 336 349 332 324 333 320 311 312 308 313 309 300 290 276 271 266 261 255 260 265 260 242 241 225 235 224 230 225 224
137 106 105 122 96 90 77 38 19 38 35 39 42 21 8 356 342 338 321 315 323 315 311 308 309 303 300 290 278 277 270 263 254 259 263 261 266 257 232 222 216 221 210 211
126 107 116 110 115 107 109 315 50 68 73 57 44 21 25 340 321 321 314 318 323 314 308 304 299 294 302 302 285 275 262 255 253 256 263 264 267 267 275 268 291 262 220 210
81 104 93 108 121 96 66 45 19 70 76 78 47 18 15 330 320 319 320 317 313 310 308 315 316 307 305 317 306 282 266 251 248 253 255 261 261 264 273 250 235 216 227 225
81 44 72 84 74 64 64 25 9 43 26 63 75 359 354 317 306 306 300 311 331 325 316 334 331 323 325 316 306 300 278 261 249 243 243 250 257 264 266 267 262 233 154 210
61 77 88 107 109 90 46 3 49 36 13 29 15 20 349 329 330 323 333 347 346 338 342 332 327 322 318 308 299 295 293 276 262 260 247 243 249 245 255 255 243 220 196 202
108 99 81 92 61 59 48 34 72 31 41 21 42 23 23 360 343 347 354 353 349 339 336 334 323 324 320 313 287 279 279 289 271 265 257 228 232 239 249 264 256 218 207 184
86 163 156 140 153 87 42 358 60 18 70 29 57 42 37 18 1 0 358 350 346 343 344 339 334 336 331 331 325 306 296 290 273 254 262 268 241 243 246 255 258 180 166 223
50 327 115 130 162 146 258 297 27 8 72 46 8 29 41 78 20 21 7 7 358 349 345 341 342 339 344 345 347 347 353 349 345 305 296 278 267 234 242 243 228 214 207 170
249 333 8 201 180 179 268 117 46 8 57 59 18 53 40 109 62 31 24 16 349 343 336 342 343 345 349 354 358 359 1 2 0 356 344 337 341 317 261 240 225 209 185 160
328 40 295 210 226 125 294 132 101 349 68 62 8 132 91 145 154 51 23 356 332 344 334 348 357 2 358 3 8 4 8 9 7 12 7 358 359 358 345 283 227 179 99 81
28 23 86 69 26 358 328 315 244 249 148 297 283 201 157 121 41 141 131 239 295 323 325 354 349 6 18 22 8 15 14 17 17 18 16 13 11 29 10 10 12 42 53 39
38 1 352 49 8 316 321 283 269 103 248 229 254 239 202 178 207 181 257 265 259 280 289 308 329 349 359 17 18 17 21 21 23 23 22 18 21 23 21 21 22 21 30 26
357 315 14 330 289 283 282 244 314 40 304 262 241 249 182 167 237 200 198 218 242 249 263 260 284 315 356 351 12 10 16 16 25 29 31 23 22 20 33 19 30 28 30 23
349 22 332 287 282 310 13 16 329 305 280 29 310 111 205 257 194 237 209 223 258 281 347 259 244 273 9 338 4 14 16 14 21 11 17 25 28 26 26 25 27 27 37 27
268 246 263 240 85 110 8 349 348 321 344 6 26 48 38 22 358 290 260 268 279 28 15 330 346 25 140 309 15 10 13 26 21 20 17 18 25 36 34 31 29 26 30 25
61 7 52 103 110 20 269 245 120 162 346 21 59 56 47 11 356 353 340 299 116 99 44 355 341 8 32 86 51 39 24 17 40 34 33 26 20 22 31 30 33 36 30 27